This demonstration page uses our WeatherBlox Daily Observations layout. Learn more.

Left ArrowRight Arrow

47.50024, -111.30081

Hourly Observations for April 18, 2018

Temp ( °F °C ) Dew Point ( °F °C ) Humidity (%) Winds ( mph kmh ) Pressure ( in mb ) Visibility ( mi km ) Precip ( " mm )
12:53 am 00:53 Mostly Clear 32 0 23 -5 69 69 SW 13 20 30.17 1022 10 16 0.00 0.00
1:53 am 01:53 Cloudy 34 1.1 23 -5 64 64 SW 12 19 30.18 1022 10 16 0.00 0.00
2:53 am 02:53 Mostly Cloudy 31 -0.6 22 -5.6 69 69 SSW 15 24 30.20 1023 10 16 0.00 0.00
3:53 am 03:53 Clear 31 -0.6 20 -6.7 64 64 SW 14 22 30.19 1023 10 16 0.00 0.00
4:53 am 04:53 Clear 31 -0.6 19 -7.2 61 61 SW 14 22 30.22 1023 10 16 0.00 0.00
5:53 am 05:53 Clear 29 -1.7 19 -7.2 66 66 SSW 13 20 30.24 1024 10 16 0.00 0.00
6:53 am 06:53 Sunny 30 -1.1 20 -6.7 66 66 SW 13 20 30.26 1025 10 16 0.00 0.00
7:53 am 07:53 Sunny 35 1.7 21 -6.1 57 57 SSW 14 22 30.27 1025 10 16 0.00 0.00
8:53 am 08:53 Sunny 40 4.4 20 -6.7 45 45 SW 17 28 30.28 1025 10 16 0.00 0.00
9:53 am 09:53 Sunny 42 5.6 19 -7.2 40 40 SW 15 24 30.28 1025 10 16 0.00 0.00
10:53 am 10:53 Sunny 45 7.2 19 -7.2 35 35 W 14 22 30.28 1025 10 16 0.00 0.00
11:53 am 11:53 Sunny 46 7.8 17 -8.3 31 31 SW 7 11 30.27 1025 10 16 0.00 0.00
12:53 pm 12:53 Sunny 48 8.9 16 -8.9 28 28 S 13 20 30.26 1025 10 16 0.00 0.00
1:53 pm 13:53 Sunny 50 10 16 -8.9 26 26 S 13 20 30.24 1024 10 16 0.00 0.00
2:53 pm 14:53 Sunny 50 10 16 -8.9 26 26 E 7 11 30.24 1024 10 16 0.00 0.00
3:53 pm 15:53 Sunny 51 10.6 16 -8.9 25 25 VRB 6 9 30.22 1024 10 16 0.00 0.00
4:53 pm 16:53 Sunny 51 10.6 15 -9.4 24 24 NNE 3 6 30.20 1023 10 16 0.00 0.00
5:53 pm 17:53 Sunny 51 10.6 14 -10 23 23 Calm 30.21 1023 10 16 0.00 0.00
6:53 pm 18:53 Sunny 50 10 14 -10 24 24 WSW 3 6 30.20 1023 10 16 0.00 0.00
7:53 pm 19:53 Sunny 48 8.9 15 -9.4 27 27 ENE 3 6 30.20 1023 10 16 0.00 0.00
8:53 pm 20:53 Clear 43 6.1 18 -7.8 37 37 ENE 7 11 30.20 1023 10 16 0.00 0.00
9:53 pm 21:53 Clear 41 5 21 -6.1 45 45 ENE 9 15 30.21 1023 10 16 0.00 0.00
10:53 pm 22:53 Clear 38 3.3 22 -5.6 52 52 E 10 17 30.22 1023 10 16 0.00 0.00
11:53 pm 23:53 Clear 37 2.8 24 -4.4 59 59 E 14 22 30.21 1023 10 16 0.00 0.00

Powered by AerisWeather